Location: B?ogocice
(50.2413°N, 20.2361°E)
Time: 12:45:53
(UTC+00:00)

NPP - Pass Details

Date: 15 June 2024
Orbit: 826 x 828 km, 98.7° (Epoch: 16 July)

Event Time Altitude Azimuth Distance (km) Brightness Sun altitude
Rises 00:25:57 0° 16° (NNE) 3,381 8.7 -12.8°
Reaches altitude 10° 00:28:20 10° 18° (NNE) 2,443 7.6 -12.6°
Maximum altitude 00:33:45 73° 104° (ESE) 867 3.8 -12.2°
Enters shadow 00:38:23 14° 188° (S) 2,138 5.2 -11.9°
